User: anonymous   Login
Location: Downe
(51.3167°N, 0.0500°E)
Time: 17:57:58
(UTC+00:00)
Language:

Lacrosse 5 rocket - Orbit

View from above orbital plane
View from above orbital plane
View from above satellite
View from above satellite

Ground track
Ground track

The orbit data is extracted from the following two-line orbital elements,

1 28647U 05016B   20025.50435649  .00000117  00000-0  25274-4 0  9997
2 28647  56.9981 105.8281 0120894 242.4354 116.4361 15.05887719 38273
Epoch (UTC): 25 January 2020 12:06:16
Eccentricity: 0.0120894
inclination: 56.9981°
perigee height: 465 km
apogee height: 632 km
right ascension of ascending node: 105.8281°
argument of perigee: 242.4354°
revolutions per day: 15.05887719
mean anomaly at epoch: 116.4361°
orbit number at epoch: 3827

The dashed part of the orbit path shows where the satellite is in the earth's shadow,  

DLR